[[{"header":{"parameterUnit":"m.s-1","parameterCategory":1,"la1":30.2991,"la2":30.254,"lo1":-89.0895,"lo2":-89.0444,"dy":0.0017,"dx":0.0017,"nx":28,"ny":28,"refTime":"2026-02-25T03:00:00:Z","depth":0,"parameterNumber":2,"parameterNumberName":"U-component_of_WINDS"},"data":[0,0,0,0,0,0,0,0,0,0,0,0,0,0,0,0,0,0,0,0,0,0,0,0,0,0,0,0,0,0,0,0,0,0,0,0,0,0,0,0,0,0,0,0,0,0,0,0,0,0,0,0,0,0,0,0,0,0,0.138,0.138,0,0.1404,0.1404,0.1404,0.1387,0.1387,0.1386,0.1385,0.1413,0.1414,0.1416,0,0,0,0,0,0,0,0,0,0,0,0,0,0.1322,0.1323,0.138,0.138,0.138,0.1404,0.1404,0.1405,0.1388,0.1387,0.1386,0.1385,0.1413,0.1414,0.1416,0,0,0,0,0,0,0,0,0,0,0,0,0,0.1347,0.1323,0.138,0.1375,0.1374,0.1404,0.1404,0.1405,0.1388,0.1387,0.1385,0.1384,0.1412,0.1414,0.1416,0.1453,0,0,0.1423,0.1424,0,0,0,0,0,0,0,0,0.1345,0.1349,0.1375,0.1375,0.1375,0.1391,0.1394,0.1421,0.1388,0.1383,0.1385,0.1384,0.1407,0.1409,0.1417,0.1454,0.1455,0.1423,0.1424,0.1425,0.1426,0,0,0,0,0,0,0,0.1344,0.1348,0.1389,0.1376,0.1375,0.1372,0.1374,0.1399,0.1401,0.1383,0.1382,0.1385,0.1407,0.1415,0.1417,0.1456,0.1423,0.1425,0.1426,0.1427,0.1526,0.1527,0,0,0,0,0,0,0.1342,0.1346,0.1389,0.139,0.1357,0.1374,0.1377,0.1387,0.1401,0.1402,0.1386,0.1384,0.1411,0.1415,0.1418,0.1463,0.1425,0.1427,0.1429,0.1524,0.1526,0.1527,0,0,0,0,0,0,0.1341,0.1346,0.1388,0.1368,0.1373,0.1376,0.1388,0.1388,0.1396,0.1403,0.1403,0.1393,0.1411,0.1415,0.1444,0.1463,0.1428,0.143,0.1523,0.1525,0.1527,0.1552,0,0,0,0,0,0,0.1339,0.1346,0.1359,0.1368,0.1374,0.1413,0.139,0.139,0.14,0.1398,0.141,0.1411,0.141,0.1441,0.1446,0.1466,0.1432,0.1521,0.1524,0.1526,0.1549,0.1554,0.1559,0,0,0,0,0,0.1337,0.1365,0.1359,0.1365,0.1391,0.1414,0.1417,0.1415,0.1401,0.1415,0.1419,0.1411,0.146,0.1444,0.145,0.147,0.152,0.1523,0.1526,0.1547,0.1553,0.1559,0,0,0,0,0,0,0.1359,0.1366,0.136,0.1392,0.1402,0.1411,0.1428,0.1421,0.1436,0.1434,0.1431,0.1434,0.1465,0.147,0.1452,0.1507,0.1488,0.1492,0.1502,0.1508,0.1513,0.1512,0.1434,0,0,0,0,0,0.1367,0.1384,0.139,0.1418,0.1423,0.1425,0.1435,0.1432,0.1443,0.1448,0.1454,0.1466,0.1484,0.1496,0.1513,0.155,0.1553,0.1567,0.1571,0.1575,0.1579,0.16,0.1607,0.1537,0.1537,0.1537,0,0,0.1385,0.1391,0.1402,0.1423,0.143,0.1449,0.1429,0.145,0.1464,0.1451,0.1479,0.1484,0.1497,0.1531,0.1545,0.1536,0.1599,0.1579,0.1582,0.1584,0.1604,0.1611,0.1616,0.1539,0.1538,0.1538,0,0,0.1427,0.1433,0.1457,0.1465,0.1477,0.1477,0.1483,0.1493,0.1496,0.1523,0.1514,0.1532,0.1563,0.1573,0.1582,0.1629,0.1622,0.1634,0.1659,0.168,0.1685,0.169,0.1708,0.1715,0.1638,0.1638,0.1638,0,0.1448,0.1476,0.1471,0.1492,0.1502,0.149,0.1515,0.1523,0.154,0.1548,0.1537,0.1576,0.1584,0.162,0.1631,0.1639,0.1646,0.1633,0.1685,0.169,0.1694,0.1711,0.1718,0.164,0.1639,0.1639,0.1639,0,0.1502,0.1521,0.1539,0.1555,0.1567,0.159,0.159,0.1602,0.1598,0.1601,0.163,0.1639,0.1658,0.1666,0.1662,0.1702,0.1696,0.1685,0.1666,0.1702,0.1719,0.1725,0.1642,0.1641,0.1641,0.164,0,0,0.1559,0.1572,0.1579,0.1586,0.1598,0.1613,0.1636,0.1654,0.1666,0.1678,0.1698,0.1725,0.1715,0.1725,0.1723,0.1741,0.1778,0.1728,0.1728,0.1738,0.1824,0.1833,0.1841,0.1773,0.1774,0.1775,0.1823,0,0.1603,0.1643,0.1639,0.1677,0.1696,0.1684,0.1705,0.1715,0.1718,0.1735,0.1738,0.1757,0.1742,0.1748,0.1765,0.177,0.1796,0.1766,0.1794,0.1795,0.1792,0.1849,0.1859,0.1904,0.183,0.1831,0.1831,0,0.166,0.1673,0.1713,0.1723,0.173,0.1749,0.1765,0.1781,0.1793,0.1793,0.1805,0.18,0.1824,0.1804,0.1839,0.1819,0.183,0.1834,0.1835,0.1839,0.1816,0.1856,0.1918,0.1926,0.1841,0.184,0.1839,0,0.1699,0.1727,0.1755,0.1762,0.1773,0.1787,0.1792,0.1803,0.1814,0.1828,0.1836,0.1854,0.1864,0.1878,0.1878,0.1863,0.1914,0.1893,0.1917,0.1917,0.1929,0.1929,0.1996,0.1934,0.1934,0.1933,0.1933,0,0.175,0.1775,0.1773,0.1791,0.1819,0.1815,0.1843,0.1847,0.1857,0.1875,0.1866,0.1885,0.1883,0.1901,0.1901,0.1931,0.1935,0.1938,0.1938,0.194,0.194,0.1948,0.1945,0.1935,0.1935,0.1935,0.1934,0,0.18,0.1799,0.1829,0.1837,0.184,0.1861,0.1868,0.1885,0.1887,0.1911,0.1916,0.192,0.1941,0.1942,0.1967,0.1967,0.2004,0.1999,0.2,0.1999,0.2024,0.2022,0.21,0.211,0.204,0.204,0.2041,0,0.1832,0.1851,0.1862,0.1873,0.188,0.1898,0.191,0.1906,0.1919,0.1934,0.1949,0.1969,0.1986,0.2021,0.2026,0.2045,0.2042,0.2068,0.2045,0.2047,0.2045,0.2044,0.2047,0.2073,0.2074,0.2075,0.2075,0,0.1891,0.189,0.1906,0.1923,0.1936,0.1949,0.1961,0.1972,0.197,0.1984,0.2006,0.2018,0.2043,0.2064,0.2083,0.209,0.2083,0.2082,0.2089,0.2092,0.2092,0.2094,0.2013,0.2081,0.208,0.208,0.2079,0.2079,0.1935,0.1951,0.1961,0.198,0.1989,0.2,0.2017,0.202,0.2038,0.2058,0.2055,0.2079,0.2091,0.2115,0.2124,0.2143,0.2135,0.2144,0.2147,0.215,0.2153,0.2087,0.2147,0.2146,0.2146,0.2146,0.2146,0,0.1994,0.2,0.2017,0.2034,0.2049,0.204,0.2053,0.2066,0.2087,0.2099,0.2115,0.214,0.216,0.2167,0.2187,0.2201,0.2199,0.2207,0.2207,0.2209,0.2159,0.2152,0.2209,0.2209,0.2209,0.2209,0.2209,0.2209,0.2027,0.2056,0.2056,0.2089,0.2095,0.2118,0.2126,0.2137,0.2146,0.2175,0.2191,0.2195,0.2205,0.2226,0.2244,0.2246,0.2255,0.2264,0.2265,0.2218,0.2212,0.2206,0.22,0.2266,0.2266,0.2313,0.2314,0.2314]},{"header":{"parameterUnit":"m.s-1","parameterCategory":1,"la1":30.2991,"la2":30.254,"lo1":-89.0895,"lo2":-89.0444,"dy":0.0017,"dx":0.0017,"nx":28,"ny":28,"refTime":"2026-02-25T03:00:00:Z","depth":0,"parameterNumber":3,"parameterNumberName":"V-component_of_WINDS"},"data":[0,0,0,0,0,0,0,0,0,0,0,0,0,0,0,0,0,0,0,0,0,0,0,0,0,0,0,0,0,0,0,0,0,0,0,0,0,0,0,0,0,0,0,0,0,0,0,0,0,0,0,0,0,0,0,0,0,0,4.8594,4.8596,0,4.8754,4.8756,4.8758,4.8759,4.8757,4.8755,4.8753,4.8916,4.8922,4.8929,0,0,0,0,0,0,0,0,0,0,0,0,0,4.8289,4.8295,4.8594,4.8596,4.8598,4.8754,4.8756,4.8758,4.8759,4.8757,4.8754,4.8752,4.8914,4.8922,4.8929,0,0,0,0,0,0,0,0,0,0,0,0,0,4.8433,4.8297,4.8594,4.8617,4.8621,4.8754,4.8756,4.8759,4.876,4.8757,4.8754,4.8751,4.8912,4.8921,4.893,4.905,0,0,4.8959,4.8963,0,0,0,0,0,0,0,0,4.8425,4.8444,4.8612,4.8616,4.862,4.8734,4.8709,4.8857,4.8761,4.8707,4.8753,4.8749,4.8858,4.8872,4.8908,4.9057,4.9064,4.896,4.8965,4.8969,4.8972,0,0,0,0,0,0,0,4.8415,4.8437,4.8658,4.8614,4.862,4.862,4.8637,4.8737,4.8798,4.8712,4.8712,4.8731,4.886,4.8899,4.8912,4.9067,4.8959,4.8968,4.8974,4.8977,4.9324,4.9327,0,0,0,0,0,0,4.84,4.8429,4.8652,4.8662,4.8513,4.8628,4.8647,4.87,4.8797,4.8808,4.8733,4.873,4.8885,4.8901,4.8918,4.9066,4.8969,4.8978,4.8984,4.932,4.9325,4.9329,0,0,0,0,0,0,4.8393,4.842,4.8646,4.8546,4.8575,4.8637,4.8696,4.8705,4.8745,4.8813,4.8824,4.8763,4.8883,4.8905,4.9017,4.9072,4.8982,4.8991,4.9316,4.9322,4.9327,4.9362,0,0,0,0,0,0,4.8385,4.8418,4.8464,4.8547,4.858,4.8743,4.87,4.871,4.8761,4.8759,4.8844,4.8855,4.8882,4.9003,4.9027,4.9083,4.8998,4.9312,4.9319,4.9325,4.9357,4.9368,4.9378,0,0,0,0,0,4.8374,4.8467,4.8466,4.8493,4.8639,4.8746,4.8765,4.8795,4.8765,4.8812,4.8857,4.8852,4.9061,4.9015,4.9041,4.9101,4.9308,4.9317,4.9325,4.9352,4.9366,4.9378,0,0,0,0,0,0,4.8388,4.8478,4.8478,4.8601,4.8666,4.8746,4.8806,4.8809,4.8883,4.8878,4.8911,4.8931,4.9043,4.9083,4.903,4.9223,4.9181,4.9195,4.9193,4.9207,4.9218,4.9207,4.9006,0,0,0,0,0,4.8405,4.8485,4.8559,4.866,4.8693,4.8744,4.8792,4.8809,4.8878,4.8905,4.8958,4.9024,4.9105,4.9158,4.9236,4.9362,4.9381,4.9416,4.9426,4.9435,4.9447,4.9518,4.9535,4.9355,4.9355,4.9355,0,0,4.8442,4.8501,4.8549,4.8664,4.8717,4.8799,4.8767,4.8855,4.8916,4.8918,4.9029,4.907,4.9146,4.9266,4.9322,4.9303,4.9501,4.9445,4.9452,4.9459,4.9528,4.9545,4.956,4.9361,4.936,4.9359,0,0,4.8551,4.8603,4.8694,4.8747,4.8827,4.8861,4.8883,4.8963,4.8991,4.9102,4.9106,4.9179,4.9317,4.9373,4.9419,4.955,4.9549,4.9574,4.9631,4.97,4.9714,4.9727,4.9776,4.9793,4.9585,4.9585,4.9585,0,4.8587,4.8711,4.874,4.8829,4.888,4.8886,4.8979,4.9029,4.9131,4.9166,4.9143,4.9318,4.937,4.9504,4.9536,4.9573,4.96,4.9565,4.971,4.9723,4.9735,4.9782,4.98,4.9588,4.9588,4.9587,4.9587,0,4.8751,4.8837,4.8901,4.9,4.9058,4.9148,4.9192,4.9247,4.9259,4.9295,4.9409,4.9472,4.9564,4.9596,4.9609,4.9733,4.9719,4.9702,4.9662,4.9755,4.9799,4.9817,4.9592,4.9591,4.959,4.9589,0,0,4.8875,4.8989,4.9012,4.9058,4.9147,4.9214,4.9305,4.9395,4.9443,4.9512,4.959,4.9707,4.9693,4.9746,4.9764,4.9825,4.9927,4.9801,4.9804,4.9824,5.007,5.0083,5.0103,4.9926,4.993,4.9933,5.0064,0,4.8995,4.9157,4.9187,4.9328,4.9409,4.9416,4.9495,4.9558,4.9594,4.9668,4.9708,4.9791,4.9765,4.9797,4.9857,4.9902,4.9977,4.9892,5.0,5.0004,4.9983,5.0126,5.014,5.0262,5.0081,5.0084,5.0087,0,4.9157,4.9232,4.9382,4.9462,4.9497,4.9568,4.9654,4.9724,4.9796,4.9818,4.9877,4.9889,4.9984,4.9938,5.007,5.0012,5.0058,5.0086,5.0092,5.0105,5.0052,5.0145,5.0301,5.032,5.0114,5.0112,5.011,0,4.9235,4.9373,4.9481,4.9519,4.9615,4.9665,4.9706,4.9776,4.9828,4.9903,4.9938,5.0023,5.0069,5.0135,5.017,5.0132,5.03,5.0256,5.0322,5.0322,5.0359,5.0357,5.0526,5.0385,5.0385,5.0384,5.0384,0,4.9368,4.9459,4.9517,4.9584,4.9688,4.972,4.9822,4.9863,4.9925,5.0,5.001,5.008,5.0121,5.0197,5.0225,5.0331,5.0352,5.0373,5.038,5.0374,5.0371,5.0405,5.0399,5.0389,5.0388,5.0387,5.0386,0,4.9472,4.9515,4.9633,4.9714,4.9736,4.9809,4.9878,4.9944,4.9979,5.0074,5.0098,5.0155,5.0246,5.0286,5.0397,5.0416,5.0538,5.0538,5.0515,5.0517,5.0582,5.0576,5.0781,5.0811,5.0648,5.0649,5.065,0,4.9555,4.9626,4.9715,4.9766,4.981,4.9892,4.9946,4.9981,5.0038,5.0126,5.0181,5.0272,5.0347,5.0491,5.0542,5.0628,5.0631,5.0697,5.0644,5.0636,5.0635,5.0631,5.0639,5.0707,5.0709,5.071,5.0711,0,4.9699,4.9716,4.9794,4.9881,4.9945,5.0015,5.0082,5.0124,5.0169,5.0232,5.0325,5.0383,5.0498,5.0588,5.0677,5.0721,5.0725,5.0727,5.0747,5.0743,5.0727,5.0739,5.0543,5.0723,5.0721,5.0721,5.072,5.0719,4.9797,4.9861,4.9934,5.0021,5.0076,5.0139,5.0205,5.025,5.0328,5.0424,5.044,5.054,5.0611,5.0731,5.0778,5.0857,5.0841,5.0869,5.0877,5.0884,5.089,5.0713,5.0872,5.0872,5.0872,5.0872,5.0872,0,4.9943,4.999,5.007,5.0165,5.0234,5.0231,5.0306,5.0364,5.0451,5.0518,5.0592,5.0699,5.0788,5.0846,5.0935,5.0987,5.0991,5.101,5.1007,5.1018,5.0897,5.0872,5.1005,5.1005,5.1005,5.1005,5.1005,5.1005,5.0027,5.0136,5.0163,5.0299,5.0346,5.0444,5.0488,5.0547,5.06,5.072,5.0794,5.0831,5.0895,5.0989,5.107,5.1085,5.1119,5.1138,5.1153,5.104,5.1026,5.1013,5.0989,5.1145,5.1145,5.1267,5.1268,5.1269]}]]